Wetbulb
67.34 67.25 67.75 68.78 70.70 71.12 71.25 71.48 71.39 71.08 71.55 71.55 71.43 70.93 70.77 69.36 68.40 67.77 68.28 68.05 66.83 67.85 69.20 68.33 68.51 68.48 68.79 68.23 68.20 68.62 68.54 67.86 67.31
64.91 64.83 64.95 66.49 67.36 68.59 70.01 70.38 70.61 70.83 71.06 70.83 71.17 71.00 70.28 70.16 69.63 68.65 67.71 68.20 67.28 68.25 69.42 69.51 69.16 69.63 68.87 68.57 68.17 68.18 69.11 68.33 68.06
62.31 62.57 62.77 63.77 64.47 65.09 65.58 66.51 67.33 68.66 70.14 70.52 70.56 70.30 69.19 69.52 70.13 69.83 68.57 68.55 67.69 68.57 69.55 69.97 70.09 69.67 69.59 69.23 68.74 68.46 68.65 69.06 68.51
60.10 60.28 60.71 61.84 62.37 62.73 63.14 63.45 64.49 67.11 67.74 68.50 68.93 69.12 68.73 70.23 70.49 70.13 69.95 68.32 67.98 68.47 68.98 69.55 70.18 70.59 69.92 69.66 69.16 68.89 68.46 68.70 68.99
58.30 58.31 59.33 60.07 60.73 60.99 61.29 61.91 62.09 61.60 63.04 65.36 67.23 67.69 67.61 70.18 70.05 70.54 70.27 69.05 68.77 68.75 68.45 68.93 69.54 69.97 70.77 70.26 70.10 69.27 68.90 68.58 68.77
58.80 57.66 57.32 58.04 58.46 59.01 59.45 60.04 60.08 59.50 59.65 59.54 61.03 64.29 67.87 70.72 70.56 70.97 69.86 69.89 70.05 70.15 69.73 69.18 69.08 69.54 70.84 70.36 70.12 70.15 69.63 69.09 68.83
56.55 56.71 55.84 56.70 56.54 57.34 57.41 58.07 58.34 58.31 58.86 59.77 59.74 62.68 66.42 68.30 69.39 70.37 69.31 69.91 70.74 70.84 70.47 70.22 70.09 70.32 70.57 70.56 70.10 70.04 70.00 69.67 69.66
56.69 56.99 57.37 57.80 56.97 58.13 58.45 58.87 58.82 58.68 58.61 58.41 58.54 59.43 60.45 63.95 67.22 67.62 67.59 68.97 70.23 70.61 70.17 69.90 70.03 70.10 70.24 70.32 70.15 70.29 70.17 69.94 69.86
54.83 54.93 55.25 55.33 55.77 55.19 55.80 56.11 56.85 57.58 58.28 58.48 58.10 57.87 58.34 59.30 61.47 64.33 66.00 66.35 67.25 68.43 69.20 69.34 69.33 69.49 69.81 70.13 70.13 70.11 70.12 70.09 69.80
53.13 53.10 52.89 52.97 53.12 52.74 52.90 53.39 53.62 54.39 56.02 57.22 57.67 58.06 58.11 58.04 58.63 59.53 62.22 63.48 64.57 64.32 65.42 66.75 67.79 68.38 68.84 69.40 69.72 70.07 69.61 69.80 69.84
51.26 51.02 51.20 51.31 51.87 52.23 52.24 52.20 52.13 52.51 53.59 54.53 56.12 57.02 57.91 58.38 58.44 58.47 58.96 60.01 61.18 62.35 63.38 63.97 65.06 65.63 66.66 68.00 69.23 69.11 69.43 69.52 69.77
50.65 50.51 50.52 51.18 51.95 52.05 52.46 52.53 53.06 53.05 52.99 52.60 53.72 55.31 56.53 57.40 57.73 58.35 58.73 59.15 58.97 58.88 60.19 61.50 62.93 63.55 63.63 64.30 66.46 68.26 68.68 69.18 69.28
49.94 49.34 49.69 51.38 51.89 52.03 52.00 51.85 51.77 52.17 53.14 53.54 53.97 54.25 55.72 56.33 56.73 57.16 57.52 58.01 58.42 59.52 58.61 58.63 59.50 60.77 61.84 62.67 63.55 64.41 67.34 68.19 68.49
48.43 48.66 50.43 51.23 51.40 51.57 51.22 51.37 51.48 51.01 52.42 53.01 53.61 54.47 54.83 55.38 55.61 55.72 56.40 57.08 57.26 57.94 59.32 55.67 56.76 58.49 60.05 61.46 62.50 63.30 64.41 65.54 65.26
48.15 49.70 50.54 51.00 50.51 50.94 50.99 50.66 52.10 52.09 52.24 52.57 53.08 54.62 55.26 55.69 55.95 55.98 56.41 56.98 57.23 58.15 58.12 59.33 58.46 56.32 57.04 58.12 59.42 60.11 60.90 61.67 62.84
48.18 49.76 50.31 50.27 49.70 50.12 50.47 50.58 50.86 51.62 53.14 52.77 54.49 55.03 55.24 55.06 55.97 56.47 56.04 55.64 56.04 56.58 57.53 58.10 57.93 58.01 55.06 55.16 56.57 57.01 58.06 59.19 60.44
47.66 49.37 49.37 49.33 49.15 49.82 50.00 50.21 49.88 51.30 52.76 50.64 51.80 51.03 52.42 54.49 55.05 56.15 55.28 54.98 56.17 55.71 55.17 55.66 55.74 56.35 56.65 56.14 54.71 54.94 56.21 57.61 58.99
47.48 48.73 48.92 48.65 49.28 48.88 49.13 49.56 49.42 48.55 51.23 50.99 50.19 49.67 49.24 50.44 53.68 53.41 54.80 54.56 54.94 55.10 54.80 54.43 54.36 54.72 55.18 55.34 55.92 53.61 54.64 56.21 57.91
47.11 47.84 48.25 48.33 48.90 48.58 48.89 48.82 48.82 48.60 47.75 49.88 51.39 52.38 51.01 48.00 48.14 52.38 53.10 53.47 52.60 53.24 53.87 53.89 53.80 54.17 54.62 54.13 52.89 52.78 54.10 55.62 57.06
46.80 47.08 47.46 47.64 48.46 48.60 48.41 48.71 48.56 47.70 46.95 47.09 47.85 49.65 51.02 50.03 47.17 45.63 49.48 51.09 52.15 52.50 52.76 52.94 53.42 53.74 54.02 54.48 53.98 52.12 53.49 54.53 55.80
MSLP
1016.25 1016.08 1015.88 1015.70 1015.49 1015.17 1015.03 1015.06 1015.01 1015.06 1015.10 1015.09 1015.13 1015.10 1015.25 1015.50 1015.04 1014.82 1014.74 1015.03 1015.08 1015.29 1015.25 1015.32 1015.46 1015.55 1015.52 1015.54 1015.57 1015.59 1015.65 1015.69 1015.70
1016.55 1016.38 1016.15 1015.84 1015.55 1015.28 1014.97 1014.85 1014.79 1014.77 1014.78 1014.73 1014.70 1014.89 1015.01 1014.92 1014.33 1014.41 1014.53 1014.62 1015.00 1015.06 1015.00 1015.03 1015.19 1015.28 1015.34 1015.40 1015.48 1015.54 1015.54 1015.62 1015.73
1016.81 1016.60 1016.37 1016.08 1015.82 1015.49 1015.20 1014.96 1014.80 1014.63 1014.45 1014.39 1014.38 1014.50 1014.66 1014.47 1014.09 1013.98 1014.21 1014.38 1014.84 1014.88 1014.79 1014.81 1014.92 1015.07 1015.16 1015.18 1015.21 1015.32 1015.46 1015.58 1015.65
1016.88 1016.73 1016.52 1016.26 1016.00 1015.74 1015.49 1015.17 1014.90 1014.68 1014.44 1014.32 1014.19 1014.22 1014.28 1013.96 1013.76 1013.47 1013.63 1014.02 1014.52 1014.57 1014.57 1014.58 1014.59 1014.72 1014.86 1014.96 1015.06 1015.13 1015.25 1015.36 1015.47
1016.80 1016.61 1016.47 1016.39 1016.16 1015.90 1015.60 1015.35 1015.12 1014.83 1014.53 1014.32 1014.19 1014.05 1013.85 1013.54 1013.13 1013.34 1013.17 1013.62 1014.07 1014.18 1014.21 1014.26 1014.30 1014.35 1014.39 1014.54 1014.69 1014.84 1014.96 1015.06 1015.20
1016.54 1016.76 1016.73 1016.32 1016.03 1015.93 1015.72 1015.46 1015.21 1015.02 1014.53 1014.31 1014.12 1013.96 1012.91 1012.80 1012.83 1012.85 1012.96 1013.28 1013.59 1013.70 1013.83 1013.94 1013.98 1014.02 1014.01 1014.21 1014.36 1014.44 1014.57 1014.70 1014.81
1017.05 1016.70 1016.65 1016.29 1016.10 1015.63 1015.41 1015.30 1015.08 1014.78 1013.93 1013.62 1013.74 1012.95 1012.50 1012.34 1012.16 1012.38 1012.72 1013.00 1013.16 1013.25 1013.31 1013.46 1013.61 1013.59 1013.57 1013.69 1013.87 1013.98 1014.11 1014.28 1014.43
1016.51 1016.24 1016.01 1015.85 1015.63 1015.09 1014.85 1014.44 1014.26 1014.15 1013.94 1013.69 1013.29 1013.04 1012.63 1012.27 1012.17 1012.58 1012.85 1012.91 1012.89 1012.80 1012.94 1013.06 1013.10 1013.16 1013.18 1013.21 1013.29 1013.43 1013.64 1013.81 1013.95
1016.61 1016.34 1016.23 1015.86 1015.49 1015.25 1014.93 1014.49 1014.14 1014.07 1013.80 1013.61 1013.37 1012.99 1012.61 1012.41 1012.06 1011.77 1012.45 1012.76 1012.73 1012.66 1012.59 1012.61 1012.66 1012.63 1012.63 1012.65 1012.74 1012.87 1013.05 1013.25 1013.48
1016.93 1016.63 1016.36 1016.10 1015.78 1015.34 1015.07 1014.60 1014.16 1013.90 1013.47 1013.19 1013.06 1013.02 1012.68 1012.38 1012.29 1011.96 1012.22 1012.57 1012.63 1012.61 1012.55 1012.43 1012.32 1012.16 1012.11 1012.15 1012.15 1012.25 1012.48 1012.68 1012.85
1017.05 1016.74 1016.41 1016.14 1015.95 1015.48 1015.19 1014.78 1014.32 1013.83 1013.53 1013.03 1012.69 1012.59 1012.45 1012.46 1012.26 1012.06 1011.85 1012.29 1012.50 1012.48 1012.37 1012.23 1012.11 1012.03 1011.94 1011.78 1011.72 1011.75 1011.88 1011.96 1012.13
1017.05 1016.88 1016.61 1016.22 1015.88 1015.50 1015.05 1014.74 1014.30 1013.74 1013.38 1012.96 1012.61 1012.34 1012.13 1012.02 1012.00 1011.93 1011.81 1011.73 1012.09 1012.29 1012.25 1012.11 1011.93 1011.88 1011.87 1011.74 1011.56 1011.44 1011.40 1011.39 1011.49
1017.10 1016.92 1016.57 1016.36 1015.97 1015.48 1015.09 1014.66 1014.32 1013.72 1013.28 1012.74 1012.49 1012.29 1012.06 1011.90 1011.71 1011.68 1011.80 1011.73 1011.71 1011.71 1012.02 1012.15 1012.10 1011.96 1011.82 1011.64 1011.46 1011.30 1011.20 1011.15 1011.14
1017.30 1016.93 1016.45 1016.34 1015.99 1015.58 1015.18 1014.78 1014.48 1013.78 1013.28 1012.83 1012.46 1012.26 1012.09 1011.99 1011.82 1011.80 1011.64 1011.60 1011.81 1011.61 1011.61 1012.00 1012.02 1011.92 1011.72 1011.49 1011.30 1011.15 1011.07 1011.04 1011.04
1017.17 1016.94 1016.60 1016.36 1015.89 1015.49 1015.21 1014.86 1014.38 1013.88 1013.55 1012.96 1012.30 1012.18 1012.13 1012.02 1011.86 1011.76 1011.74 1011.61 1011.66 1011.59 1011.62 1011.46 1011.52 1011.83 1011.76 1011.63 1011.47 1011.38 1011.25 1011.11 1011.03
1017.16 1016.79 1016.58 1016.33 1015.95 1015.64 1015.35 1014.85 1014.34 1013.76 1013.57 1012.93 1012.04 1012.02 1012.10 1011.89 1011.82 1011.79 1011.80 1011.90 1011.79 1011.74 1011.63 1011.52 1011.37 1011.24 1011.70 1011.69 1011.76 1011.66 1011.40 1011.20 1011.05
1016.93 1016.83 1016.60 1016.32 1016.05 1015.72 1015.40 1014.97 1014.47 1013.93 1013.82 1013.35 1012.64 1011.74 1011.81 1011.84 1011.99 1011.98 1011.98 1012.02 1011.94 1011.95 1011.92 1011.74 1011.64 1011.54 1011.41 1011.46 1011.78 1011.76 1011.53 1011.28 1011.11
1016.74 1016.58 1016.55 1016.36 1016.21 1015.74 1015.57 1015.26 1014.89 1014.38 1014.03 1013.99 1013.46 1012.20 1011.65 1011.87 1011.93 1012.01 1011.97 1011.99 1011.94 1011.91 1011.83 1011.81 1011.72 1011.58 1011.41 1011.50 1011.39 1011.69 1011.59 1011.32 1011.02
1016.54 1016.46 1016.35 1016.28 1016.14 1015.90 1015.57 1015.27 1015.16 1014.89 1014.41 1014.20 1013.70 1013.34 1012.95 1012.30 1011.71 1011.77 1011.80 1011.94 1011.78 1011.76 1011.70 1011.60 1011.43 1011.39 1011.30 1011.49 1011.62 1011.65 1011.57 1011.27 1011.01
1016.30 1016.34 1016.21 1016.10 1016.08 1015.85 1015.74 1015.48 1015.08 1015.18 1014.93 1014.53 1014.29 1013.61 1013.04 1013.10 1012.79 1011.95 1011.61 1011.78 1011.58 1011.56 1011.56 1011.36 1011.16 1011.11 1011.19 1011.17 1011.32 1011.48 1011.42 1011.24 1011.01
Wind_Speed
9 9 9 9 10 10 12 11 11 10 9 13 12 11 10 9 10 7 6 7 1 6 8 5 4 5 5 4 4 8 7 7 6
11 11 11 10 10 10 9 7 9 11 11 11 13 12 10 11 10 8 8 8 5 8 10 10 9 9 9 8 6 3 8 8 8
11 11 12 12 11 10 10 9 8 7 7 11 10 10 11 12 11 9 8 7 9 10 11 12 12 11 11 11 10 9 8 10 10
10 10 10 11 11 11 11 9 8 8 7 7 6 9 9 13 8 9 8 11 13 13 13 13 14 15 14 14 13 12 11 11 12
6 7 9 11 11 11 11 11 10 9 8 8 8 7 10 13 12 7 8 9 12 15 15 15 14 15 16 16 15 15 14 14 11
9 6 9 8 8 9 10 10 11 12 9 4 6 9 8 9 8 7 9 10 14 15 15 16 16 15 14 16 17 16 16 16 15
7 6 6 6 7 7 6 8 9 10 7 6 6 6 8 7 8 6 5 10 15 16 16 16 17 18 16 14 18 19 18 17 16
5 5 5 7 5 5 7 6 5 7 7 7 7 7 7 6 6 7 5 8 13 14 14 15 16 17 18 18 18 19 19 19 19
6 5 6 6 5 8 7 5 7 8 7 8 9 10 8 6 6 6 8 9 12 13 13 12 11 12 13 15 19 18 18 19 19
6 6 6 6 6 7 8 7 6 9 8 7 8 9 10 10 6 6 5 6 11 11 12 12 12 13 14 13 14 15 18 19 21
6 7 6 6 6 5 7 8 8 7 8 8 8 8 8 9 9 7 7 5 9 11 12 12 12 12 12 13 13 13 13 18 20
5 6 6 6 6 7 6 8 8 7 7 9 8 7 8 7 8 7 7 6 8 8 11 12 12 11 11 11 11 11 10 11 14
5 6 6 6 6 6 6 6 7 7 7 6 6 6 7 8 7 6 6 5 6 5 7 7 9 10 11 12 12 12 10 8 9
6 6 6 6 6 6 5 6 6 6 7 6 6 6 6 6 5 7 7 7 5 5 1 4 2 3 6 8 10 11 10 8 8
5 6 7 6 5 5 5 6 6 6 6 7 6 5 4 4 3 3 2 0 2 1 2 2 4 4 6 6 6 7 7 8 9
6 5 6 6 6 6 6 5 6 5 5 6 2 1 3 3 2 2 3 4 3 3 2 2 3 2 2 2 7 8 8 8 9
5 6 6 6 6 6 6 6 5 4 3 5 4 2 4 3 1 2 2 3 2 2 3 4 4 4 5 4 7 7 9 9 10
5 5 6 6 5 5 5 5 6 4 3 4 3 2 1 3 3 4 1 2 2 3 4 4 5 5 5 5 3 6 9 10 11
5 5 5 6 5 6 5 4 5 4 4 2 3 4 4 3 2 3 3 3 4 5 5 5 6 5 4 2 2 4 7 9 10
4 5 5 5 4 5 6 7 5 4 5 3 3 4 4 3 4 5 3 6 5 6 5 6 5 5 4 3 1 4 7 10 11
Wind_Direction
358 359 353 338 331 299 262 258 259 252 253 240 231 222 212 202 233 243 221 251 113 248 238 229 233 216 221 203 221 214 210 201 174
359 357 356 352 346 347 0 325 287 266 255 251 239 235 215 227 240 236 241 237 224 249 232 226 221 215 211 214 217 212 207 194 184
358 358 354 350 347 348 350 343 326 330 292 265 254 237 224 218 247 233 240 228 229 244 240 241 231 227 226 219 216 218 212 201 207
354 352 354 347 344 342 343 344 346 331 311 305 316 278 232 245 243 242 228 191 225 238 245 248 248 235 227 225 223 221 223 234 242
352 329 4 341 340 338 336 337 338 339 332 321 316 288 260 242 238 235 244 170 222 238 242 249 252 252 237 227 221 223 227 230 227
328 11 335 333 332 328 325 325 324 321 282 298 321 293 257 240 248 237 233 203 233 239 244 249 255 256 259 238 228 224 228 230 226
316 302 317 313 330 302 311 304 299 267 283 270 243 258 269 269 266 237 226 224 242 248 253 255 255 255 252 251 233 230 227 228 228
327 320 329 328 331 316 311 299 293 294 288 287 277 275 274 261 232 254 283 265 268 265 264 267 265 261 258 255 246 239 234 230 225
331 325 326 322 328 320 315 311 307 292 281 277 278 272 265 264 265 264 188 255 264 270 275 283 276 267 261 264 253 248 238 232 230
327 323 318 317 320 319 313 306 306 300 292 277 269 272 268 266 264 268 155 257 269 272 273 273 274 274 274 269 266 251 244 240 234
322 315 316 311 313 313 310 309 302 294 291 287 274 268 267 265 267 267 267 219 269 271 275 274 274 273 277 279 280 263 254 244 237
332 316 304 307 310 307 308 304 300 290 284 281 279 275 270 264 257 266 272 267 225 259 278 278 278 283 283 285 285 285 276 259 247
328 301 301 316 309 311 310 313 303 298 287 285 287 281 272 273 273 270 269 269 281 231 240 289 288 290 288 287 286 285 288 274 258
318 302 307 314 312 311 323 318 305 305 294 293 285 279 278 276 277 279 278 265 267 280 227 289 297 303 290 285 282 283 286 287 286
311 304 308 310 310 317 325 318 313 307 303 303 290 284 281 272 256 295 286 352 223 258 300 236 127 61 27 13 356 339 325 316 300
312 305 303 311 316 325 321 324 322 321 328 290 246 207 176 91 112 115 108 100 69 41 29 9 323 152 159 42 1 344 333 321 312
300 307 307 311 312 315 324 334 331 327 347 333 287 241 174 192 108 137 89 62 27 22 348 331 327 309 312 0 327 335 330 319 308
277 283 297 303 300 306 315 326 335 340 308 353 317 274 329 315 170 198 213 321 316 319 325 302 315 302 297 295 298 10 330 319 309
267 274 282 294 298 297 306 307 319 317 312 312 267 284 331 323 266 197 231 279 299 305 291 292 298 287 284 280 258 333 331 324 316
258 265 278 284 293 298 303 303 300 298 299 305 317 301 257 248 289 289 284 302 296 291 278 288 273 277 282 283 76 334 322 322 316